Stündliche Wetter Juncewo

Heute, 8 März, Montag

Zeit Temperatur Niederschläge Wind Luftdruck Luftfeuchtigkeit
00:00 -1°C° 0 mm 2 m/S 758 mmHg 93%
01:00 -2°C° 0 mm 2 m/S 758 mmHg 91%
02:00 -2°C° 0 mm 2 m/S 758 mmHg 88%
03:00 -3°C° 0 mm 2 m/S 758 mmHg 84%
04:00 -3°C° 0 mm 2 m/S 758 mmHg 80%
05:00 -3°C° 0 mm 2 m/S 759 mmHg 78%
06:00 -3°C° 0 mm 2 m/S 759 mmHg 76%
07:00 -3°C° 0 mm 2 m/S 759 mmHg 73%
08:00 -2°C° 0 mm 2 m/S 760 mmHg 67%
09:00 0°C° 0 mm 3 m/S 761 mmHg 61%
10:00 +2°C° 0 mm 3 m/S 761 mmHg 54%
11:00 +2°C° 0 mm 3 m/S 761 mmHg 50%
12:00 +3°C° 0 mm 3 m/S 761 mmHg 46%
13:00 +3°C° 0 mm 3 m/S 761 mmHg 42%
14:00 +3°C° 0 mm 3 m/S 761 mmHg 43%
15:00 +3°C° 0 mm 3 m/S 761 mmHg 44%
16:00 +3°C° 0 mm 3 m/S 761 mmHg 45%
17:00 +1°C° 0 mm 3 m/S 761 mmHg 52%
18:00 -1°C° 0 mm 3 m/S 761 mmHg 60%
19:00 -2°C° 0 mm 2 m/S 761 mmHg 67%
20:00 -3°C° 0 mm 2 m/S 761 mmHg 69%
21:00 -3°C° 0 mm 2 m/S 762 mmHg 71%
22:00 -1°C° 0 mm 1 m/S 762 mmHg 73%
23:00 -1°C° 0 mm 1 m/S 762 mmHg 73%

Morgen, 9 März, Dienstag

Zeit Temperatur Niederschläge Wind Luftdruck Luftfeuchtigkeit
00:00 -2°C° 0 mm 1 m/S 762 mmHg 73%
01:00 -2°C° 0 mm 1 m/S 762 mmHg 73%
02:00 -2°C° 0 mm 1 m/S 761 mmHg 73%
03:00 -2°C° 0 mm 1 m/S 761 mmHg 73%
04:00 -3°C° 0 mm 0 m/S 760 mmHg 72%
05:00 -2°C° 0 mm 1 m/S 760 mmHg 71%
06:00 -1°C° 0 mm 1 m/S 760 mmHg 70%
07:00 -1°C° 0 mm 1 m/S 760 mmHg 69%
08:00 0°C° 0 mm 1 m/S 760 mmHg 62%
09:00 +1°C° 0 mm 1 m/S 760 mmHg 54%
10:00 +3°C° 0 mm 1 m/S 760 mmHg 46%
11:00 +4°C° 0 mm 1 m/S 760 mmHg 42%
12:00 +4°C° 0 mm 1 m/S 760 mmHg 39%
13:00 +5°C° 0 mm 1 m/S 760 mmHg 35%
14:00 +5°C° 0 mm 1 m/S 759 mmHg 35%
15:00 +5°C° 0 mm 1 m/S 759 mmHg 35%
16:00 +5°C° 0 mm 1 m/S 758 mmHg 35%
17:00 +3°C° 0 mm 1 m/S 758 mmHg 40%
18:00 +2°C° 0 mm 1 m/S 758 mmHg 45%
19:00 0°C° 0 mm 1 m/S 758 mmHg 49%
20:00 0°C° 0 mm 1 m/S 759 mmHg 50%
21:00 -2°C° 0 mm 2 m/S 759 mmHg 50%
22:00 -3°C° 0 mm 2 m/S 759 mmHg 51%
23:00 -3°C° 0 mm 2 m/S 759 mmHg 51%

übermorgen, 10 März, Mittwoch

Zeit Temperatur Niederschläge Wind Luftdruck Luftfeuchtigkeit
00:00 -3°C° 0 mm 2 m/S 758 mmHg 51%
01:00 -3°C° 0 mm 2 m/S 758 mmHg 52%
02:00 -3°C° 0 mm 2 m/S 758 mmHg 52%
03:00 -1°C° 0 mm 1 m/S 758 mmHg 52%
04:00 -1°C° 0 mm 1 m/S 758 mmHg 53%
05:00 -1°C° 0 mm 1 m/S 758 mmHg 54%
06:00 -3°C° 0 mm 2 m/S 758 mmHg 55%
07:00 -3°C° 0 mm 2 m/S 758 mmHg 57%
08:00 -1°C° 0 mm 2 m/S 758 mmHg 54%
09:00 +2°C° 0 mm 2 m/S 758 mmHg 51%
10:00 +3°C° 0 mm 2 m/S 758 mmHg 47%
11:00 +4°C° 0 mm 2 m/S 758 mmHg 49%
12:00 +4°C° 0 mm 3 m/S 758 mmHg 50%
13:00 +5°C° 0 mm 3 m/S 758 mmHg 51%
14:00 +5°C° 0 mm 3 m/S 758 mmHg 56%
15:00 +4°C° 0 mm 3 m/S 757 mmHg 62%
16:00 +4°C° 0 mm 3 m/S 757 mmHg 67%
17:00 +3°C° 0 mm 3 m/S 756 mmHg 74%
18:00 +2°C° 0 mm 3 m/S 756 mmHg 80%
19:00 +1°C° 0 mm 3 m/S 756 mmHg 87%
20:00 +1°C° 0 mm 3 m/S 756 mmHg 88%
21:00 0°C° 0 mm 4 m/S 755 mmHg 89%
22:00 0°C° 0 mm 4 m/S 755 mmHg 90%
23:00 +1°C° 0.1 mm 4 m/S 754 mmHg 89%

11 März, Donnerstag

Zeit Temperatur Niederschläge Wind Luftdruck Luftfeuchtigkeit
00:00 +1°C° 0.1 mm 5 m/S 754 mmHg 89%
01:00 +1°C° 0.1 mm 5 m/S 753 mmHg 88%
02:00 +1°C° 0.1 mm 5 m/S 752 mmHg 89%
03:00 +1°C° 0.1 mm 6 m/S 751 mmHg 90%
04:00 +1°C° 0.1 mm 6 m/S 749 mmHg 91%
05:00 +2°C° 0.8 mm 6 m/S 748 mmHg 92%
06:00 +2°C° 0.8 mm 6 m/S 747 mmHg 92%
07:00 +2°C° 0.8 mm 7 m/S 746 mmHg 93%
08:00 +3°C° 1.9 mm 7 m/S 746 mmHg 93%
09:00 +3°C° 1.9 mm 7 m/S 745 mmHg 94%
10:00 +4°C° 1.9 mm 7 m/S 744 mmHg 94%
11:00 +5°C° 1.3 mm 7 m/S 744 mmHg 93%
12:00 +6°C° 1.3 mm 7 m/S 743 mmHg 92%
13:00 +6°C° 1.3 mm 7 m/S 743 mmHg 90%
14:00 +8°C° 0.8 mm 7 m/S 742 mmHg 90%
15:00 +7°C° 0.8 mm 8 m/S 741 mmHg 90%
16:00 +9°C° 0.8 mm 8 m/S 741 mmHg 89%
17:00 +8°C° 0.8 mm 7 m/S 741 mmHg 88%
18:00 +7°C° 0.8 mm 6 m/S 742 mmHg 86%
19:00 +6°C° 0.8 mm 5 m/S 742 mmHg 84%
20:00 +5°C° 0.1 mm 6 m/S 742 mmHg 83%
21:00 +5°C° 0.1 mm 6 m/S 743 mmHg 81%
22:00 +4°C° 0.1 mm 6 m/S 743 mmHg 79%
23:00 +4°C° 0 mm 7 m/S 743 mmHg 79%

12 März, Freitag

Zeit Temperatur Niederschläge Wind Luftdruck Luftfeuchtigkeit
00:00 +4°C° 0 mm 7 m/S 743 mmHg 79%
01:00 +3°C° 0 mm 7 m/S 743 mmHg 79%
02:00 +3°C° 0 mm 7 m/S 743 mmHg 78%
03:00 +2°C° 0 mm 8 m/S 743 mmHg 78%
04:00 +1°C° 0 mm 8 m/S 743 mmHg 77%
05:00 +2°C° 0 mm 8 m/S 744 mmHg 79%
06:00 +2°C° 0 mm 8 m/S 745 mmHg 81%
07:00 +2°C° 0 mm 8 m/S 746 mmHg 83%
08:00 +2°C° 0 mm 9 m/S 746 mmHg 77%
09:00 +3°C° 0 mm 10 m/S 747 mmHg 70%
10:00 +5°C° 0 mm 10 m/S 748 mmHg 63%
11:00 +5°C° 0.1 mm 10 m/S 748 mmHg 61%
12:00 +5°C° 0.1 mm 10 m/S 749 mmHg 59%
13:00 +6°C° 0.1 mm 10 m/S 749 mmHg 57%
14:00 +6°C° 0.1 mm 9 m/S 749 mmHg 57%
15:00 +6°C° 0.1 mm 8 m/S 749 mmHg 57%
16:00 +6°C° 0.1 mm 8 m/S 749 mmHg 57%
17:00 +5°C° 0 mm 6 m/S 749 mmHg 61%
18:00 +5°C° 0 mm 5 m/S 750 mmHg 66%
19:00 +4°C° 0 mm 4 m/S 750 mmHg 71%
20:00 +4°C° 0 mm 4 m/S 750 mmHg 74%
21:00 +3°C° 0 mm 4 m/S 750 mmHg 76%
22:00 +3°C° 0 mm 4 m/S 750 mmHg 78%
23:00 +3°C° 0 mm 4 m/S 750 mmHg 79%

13 März, Samstag

Zeit Temperatur Niederschläge Wind Luftdruck Luftfeuchtigkeit
00:00 +3°C° 0 mm 4 m/S 750 mmHg 79%
01:00 +1°C° 0 mm 4 m/S 749 mmHg 80%
02:00 +1°C° 0 mm 5 m/S 749 mmHg 81%
03:00 +1°C° 0 mm 5 m/S 749 mmHg 81%
04:00 +1°C° 0 mm 5 m/S 748 mmHg 82%
05:00 +1°C° 0 mm 5 m/S 748 mmHg 82%
06:00 +1°C° 0 mm 5 m/S 748 mmHg 83%
07:00 +1°C° 0 mm 5 m/S 748 mmHg 83%
08:00 +2°C° 0 mm 6 m/S 748 mmHg 79%
09:00 +4°C° 0 mm 6 m/S 747 mmHg 75%
10:00 +5°C° 0 mm 7 m/S 747 mmHg 71%
11:00 +5°C° 0.3 mm 6 m/S 747 mmHg 77%
12:00 +4°C° 0.3 mm 6 m/S 747 mmHg 83%
13:00 +3°C° 0.3 mm 5 m/S 747 mmHg 89%
14:00 +5°C° 0.1 mm 5 m/S 747 mmHg 82%
15:00 +6°C° 0.1 mm 5 m/S 747 mmHg 74%
16:00 +7°C° 0.1 mm 5 m/S 747 mmHg 67%
17:00 +6°C° 0.1 mm 4 m/S 748 mmHg 71%
18:00 +4°C° 0.1 mm 3 m/S 748 mmHg 76%
19:00 +4°C° 0.1 mm 2 m/S 748 mmHg 81%
20:00 +4°C° 0 mm 2 m/S 748 mmHg 82%
21:00 +4°C° 0 mm 2 m/S 748 mmHg 84%
22:00 +4°C° 0 mm 2 m/S 749 mmHg 85%
23:00 +2°C° 0.3 mm 3 m/S 749 mmHg 87%
Mehr zeigen

Wir brauchen deine Erlaubnis

Meteoprog und unser Service Anbieter werden persönliche Daten aufbewahren, so wie Cookies, Geräte Bezeichnung oder ähnliche Technologien von deinem Gerät und Prozess, so wie Persönliche Daten Inhalte und Werbungen, genauso wie social Media und den Verkehr zu analysieren.

  • Aufbewahrung und/oder Zugang zu deiner Geräte Informationen.

    Cookies, Geräte Bezeichnung oder andere Informationen, können aufbewahrt oder Zugang zu deinem Gerät erhalten, für den Grund, der oben angegeben wird.

  • Personalisierte Werbung und Inhalte, Messungen, Einblick in das Publikum und Produkt Entwicklung.

    Werbungen und Inhalte können personalisiert werden, basierend auf ein Profil. Mehr Daten können besser personalisierte Werbungen und Inhalte hinzufügen. Werbung und Inhalte können gezeigt und gemessen werden. Einblicke über das Publikum, welche die Werbung gesehen haben und den Inhalt, können abgeleitet werden. So wie Daten können genutzt werden, um es zu verbessern oder die Benutzer Erfahrung zu verbessern das System und die Software.

Wenn du “Ich stimme zu” klickst, erlaubst du uns, die Cookies zu benutzen die Geräte Bezeichnung, den Web oder ähnliche Technologien zu benutzen. Deine Settings, können in deinem Gerät bei deinem Browser geändert werden.

Für den bestimmten Zweck, berechtigten Interessen beruhen darauf, mehr als auf den Inhalt. Du kannst mehr darüber in unseren Privaten und Cookie Politik lesen.